This demonstration page uses our WeatherBlox Daily Observations layout. Learn more.

Hourly Observations for May 24, 2016

Temp ( °F °C ) Dew Point ( °F °C ) Humidity (%) Winds ( mph kmh ) Pressure ( in mb ) Visibility ( mi km ) Precip ( " mm )
12:15 am 00:15 Clear with Nearby Thunderstorms 59 15.2 56 13.5 90 90 E 6 9 29.77 1008 10 16.0934 0 0
12:35 am 00:35 Clear with Nearby Thunderstorms 59 15.1 56 13.5 90 90 ESE 6 9 29.77 1008 10 16.0934 0 0
12:55 am 00:55 Clear 58 14.7 56 13.2 91 91 Calm 29.77 1008 10 16.0934 0 0
1:15 am 01:15 Clear 58 14.5 55 13 91 91 SE 6 9 29.77 1008 10 16.0934 0 0
1:35 am 01:35 Clear 58 14.7 56 13.6 93 93 ESE 7 11 29.77 1008 10 16.0934 0 0
1:55 am 01:55 Clear 59 14.8 57 13.7 93 93 SE 7 11 29.74 1007 10 16.0934 0 0
2:15 am 02:15 Mostly Cloudy 60 15.8 59 15 95 95 SE 8 13 29.77 1008 10 16.0934 0 0
2:35 am 02:35 Partly Cloudy 61 16.3 60 15.5 95 95 SSE 8 13 29.77 1008 10 16.0934 0 0
2:55 am 02:55 Partly Cloudy 62 16.5 60 15.6 94 94 SSE 8 13 29.77 1008 10 16.0934 0 0
3:15 am 03:15 Clear 62 16.7 60 15.7 94 94 Calm 29.77 1008 10 16.0934 0 0
3:35 am 03:35 Mostly Cloudy 63 17 61 16 94 94 SSE 3 6 29.77 1008 10 16.0934 0 0
3:55 am 03:55 Cloudy 63 17.2 61 16.1 93 93 Calm 29.8 1009 10 16.0934 0 0
4:15 am 04:15 Cloudy 63 17.3 61 16.2 93 93 SE 3 6 29.77 1008 10 16.0934 0 0
4:35 am 04:35 Mostly Cloudy 63 17 61 16 94 94 Calm 29.77 1008 10 16.0934 0 0
4:55 am 04:55 Mostly Cloudy 62 16.5 60 15.6 94 94 NNW 3 6 29.77 1008 10 16.0934 0 0
5:15 am 05:15 Partly Cloudy 62 16.5 60 15.6 94 94 NNW 3 6 29.8 1009 7 11.26538 0 0
5:35 am 05:35 Partly Cloudy 62 16.5 60 15.6 94 94 WNW 5 7 29.83 1010 7 11.26538 0 0
5:55 am 05:55 Mostly Cloudy 62 16.5 60 15.7 95 95 SSW 6 9 29.85 1011 7 11.26538 0 0
6:15 am 06:15 Cloudy with Light Rain 62 16.6 60 15.8 95 95 Calm 29.85 1011 5 8.0467 0 0
6:35 am 06:35 Mostly Cloudy with Light Drizzle 63 17.1 60 15.6 91 91 W 5 7 29.85 1011 10 16.0934 0 0
6:55 am 06:55 Partly Cloudy 62 16.5 59 15.1 92 92 Calm 29.83 1010 10 16.0934 0 0
7:15 am 07:15 Sunny 62 16.5 60 15.3 93 93 N 6 9 29.83 1010 7 11.26538 0 0
7:35 am 07:35 Sunny with Mist and Fog 61 16.2 60 15.4 95 95 NNE 5 7 29.83 1010 2 3.21868 0 0
7:55 am 07:55 Mostly Cloudy with Mist and Fog 62 16.5 60 15.6 94 94 NE 3 6 29.85 1011 1.5 2.41401 0 0
8:15 am 08:15 Cloudy with Fog 62 16.5 60 15.8 96 96 ESE 3 6 29.85 1011 0.25 0.402335 0 0
8:35 am 08:35 Cloudy with Fog 62 16.6 61 16 96 96 ESE 7 11 29.83 1010 5 8.0467 0 0
8:55 am 08:55 Mostly Cloudy 62 16.6 61 16 96 96 SSE 9 15 29.85 1011 10 16.0934 0 0
9:15 am 09:15 Mostly Cloudy 64 17.5 60 15.5 88 88 S 13 20 29.85 1011 10 16.0934 0 0
9:35 am 09:35 Partly Cloudy 65 18.6 59 15.1 80 80 S 10 17 29.83 1010 10 16.0934 0 0
9:55 am 09:55 Sunny 66 19.1 57 14 72 72 S 12 19 29.83 1010 10 16.0934 0 0
10:15 am 10:15 Sunny 67 19.7 57 13.8 69 69 SSW 10 17 29.83 1010 10 16.0934 0 0
10:35 am 10:35 Sunny 69 20.5 57 13.9 66 66 SSW 12 19 29.83 1010 10 16.0934 0 0
10:55 am 10:55 Sunny 70 21 56 13.1 61 61 S 14 22 29.83 1010 10 16.0934 0 0
11:15 am 11:15 Sunny 71 21.4 55 13 59 59 S 15 24 29.85 1011 10 16.0934 0 0
11:35 am 11:35 Sunny 70 21.3 55 12.6 58 58 S 9 15 29.85 1011 10 16.0934 0 0
11:55 am 11:55 Sunny 71 21.6 55 12.5 56 56 S 9 15 29.83 1010 10 16.0934 0 0
12:15 pm 12:15 Sunny 72 22.1 54 12.2 54 54 S 14 22 29.85 1011 10 16.0934 0 0
12:35 pm 12:35 Sunny 72 22.3 54 12.1 53 53 S 12 19 29.8 1009 10 16.0934 0 0
12:55 pm 12:55 Sunny 73 22.9 55 12.9 53 53 SSW 14 22 29.8 1009 10 16.0934 0 0
1:15 pm 13:15 Sunny 75 23.7 55 12.7 50 50 S 10 17 29.8 1009 10 16.0934 0 0
1:35 pm 13:35 Sunny 75 23.8 55 12.5 49 49 S 12 19 29.8 1009 10 16.0934 0 0
1:55 pm 13:55 Sunny 76 24.4 55 12.6 48 48 S 12 19 29.8 1009 10 16.0934 0 0
2:15 pm 14:15 Sunny 76 24.7 55 12.8 48 48 S 12 19 29.8 1009 10 16.0934 0 0
2:35 pm 14:35 Sunny 77 25 57 13.7 50 50 SSW 14 22 29.77 1008 10 16.0934 0 0
2:55 pm 14:55 Sunny 77 25.1 55 12.7 46 46 SSW 10 17 29.77 1008 10 16.0934 0 0
3:15 pm 15:15 Sunny 77 25.2 54 12.2 44 44 SSW 13 20 29.77 1008 10 16.0934 0 0
3:35 pm 15:35 Sunny 78 25.4 56 13.3 47 47 S 15 24 29.77 1008 10 16.0934 0 0
3:55 pm 15:55 Sunny 78 25.3 56 13.6 48 48 SSE 13 20 29.77 1008 10 16.0934 0 0
4:15 pm 16:15 Partly Cloudy 78 25.3 57 14 50 50 SSE 13 20 29.77 1008 10 16.0934 0 0
4:35 pm 16:35 Partly Cloudy 78 25.7 57 14.1 49 49 S 12 19 29.74 1007 10 16.0934 0 0
4:55 pm 16:55 Partly Cloudy 78 25.7 57 14.1 49 49 SSE 12 19 29.71 1006 10 16.0934 0 0
5:15 pm 17:15 Partly Cloudy 77 25.2 57 13.8 49 49 SSE 14 22 29.74 1007 10 16.0934 0 0
5:35 pm 17:35 Partly Cloudy 77 25.2 56 13.4 48 48 S 15 24 29.74 1007 10 16.0934 0 0
5:55 pm 17:55 Cloudy 77 25 55 12.9 47 47 S 15 24 29.74 1007 10 16.0934 0 0
6:15 pm 18:15 Cloudy 77 25.1 55 13 47 47 S 15 24 29.68 1005 10 16.0934 0 0
6:35 pm 18:35 Cloudy 76 24.6 56 13.4 50 50 SSE 12 19 29.71 1006 10 16.0934 0 0
6:55 pm 18:55 Cloudy 76 24.2 57 13.7 52 52 SSE 16 26 29.71 1006 10 16.0934 0 0
7:15 pm 19:15 Mostly Cloudy 76 24.2 57 14.1 53 53 SSE 13 20 29.71 1006 10 16.0934 0 0
7:35 pm 19:35 Partly Cloudy 75 24 59 14.9 57 57 SE 14 22 29.68 1005 10 16.0934 0 0
7:55 pm 19:55 Sunny 75 23.7 59 15 58 58 SE 15 24 29.68 1005 10 16.0934 0 0
8:15 pm 20:15 Sunny 74 23.4 60 15.3 61 61 SE 13 20 29.68 1005 10 16.0934 0 0
8:35 pm 20:35 Sunny 73 22.8 60 15.3 63 63 SE 12 19 29.68 1005 10 16.0934 0 0
8:55 pm 20:55 Sunny 72 22.1 60 15.5 66 66 ESE 13 20 29.68 1005 10 16.0934 0 0
9:15 pm 21:15 Clear 71 21.8 60 15.5 68 68 ESE 12 19 29.68 1005 10 16.0934 0 0
9:35 pm 21:35 Clear 70 21.2 60 15.5 70 70 ESE 10 17 29.68 1005 10 16.0934 0 0
9:55 pm 21:55 Clear 70 21 60 15.5 71 71 ESE 13 20 29.68 1005 10 16.0934 0 0
10:15 pm 22:15 Clear 69 20.7 60 15.6 73 73 ESE 13 20 29.71 1006 10 16.0934 0 0
10:35 pm 22:35 Clear 69 20.4 60 15.6 74 74 ESE 12 19 29.71 1006 10 16.0934 0 0
10:55 pm 22:55 Clear 69 20.4 60 15.8 75 75 ESE 9 15 29.71 1006 10 16.0934 0 0
11:15 pm 23:15 Clear 68 20.2 61 15.9 76 76 ESE 10 17 29.71 1006 10 16.0934 0 0
11:35 pm 23:35 Clear 68 20.1 61 16.2 78 78 ESE 10 17 29.71 1006 10 16.0934 0 0
11:55 pm 23:55 Clear 67 19.7 61 16.2 80 80 ESE 10 17 29.71 1006 10 16.0934 0 0

Powered by AerisWeather